Location: Aulagny
(45.1643°N, 4.3096°E)
Time: 18:40:27
(UTC+00:00)

Daily predictions for brighter satellites

Satellite Brightness Start Highest point End
(mag) Time Altitude Azimuth Time Altitude Azimuth Time Altitude Azimuth
Cosmos 1934 Rocket 4.1 17:06:59 10° N 17:13:15 58° ENE 17:19:31 10° SSE
CSL-04 Rocket 4.4 17:10:15 10° SE 17:15:03 32° ENE 17:19:50 10° N
USA 238 DEB 4.3 17:10:14 10° S 17:16:05 33° ESE 17:22:05 10° NE
USA 238 4.4 17:10:22 10° S 17:16:12 33° ESE 17:22:10 10° NE
Meteor 2-10 4.1 17:15:00 10° S 17:19:54 52° E 17:24:47 10° NNE
COBE Rocket 4.2 17:15:46 10° NNE 17:20:47 50° E 17:25:41 10° S
Nadezhda 3 Rocket 4.3 17:16:10 10° SSW 17:22:27 78° W 17:28:52 10° N
Cosmos 1535 Rocket 4.4 17:20:28 10° N 17:26:41 73° E 17:32:46 10° SSE
Unknown 4.0 17:23:37 10° NW 17:26:54 36° NNE 17:30:03 11° E
YAOGAN 6 3.1 17:27:26 10° SE 17:30:48 36° ENE 17:34:10 10° N
Cosmos 292 Rocket 3.7 17:26:31 10° SSW 17:31:16 87° ESE 17:36:03 10° NNE
Cosmos 1833 Rocket 2.9 17:28:44 10° NNW 17:34:14 52° ENE 17:39:42 10° SE
Lacrosse 5 rocket 4.3 17:34:21 10° W 17:36:17 14° WSW 17:38:17 10° SSW
NOSS 3-2 (A) 3.9 17:34:05 10° S 17:39:15 37° ESE 17:44:59 10° NE
SMAP 4.5 17:38:03 10° S 17:42:28 43° W 17:46:56 10° NNW
Ariane Rocket 4.0 17:38:25 10° ESE 17:42:34 26° ENE 17:46:44 10° N
Cosmos 1328 3.8 17:39:17 10° N 17:43:16 84° W 17:47:12 10° S
Cosmos 2228 4.2 17:39:06 10° SSW 17:43:19 48° WNW 17:47:32 10° N
SKYMED 2 3.6 17:40:32 10° NNE 17:44:52 62° E 17:49:09 10° S
YAOGAN 1 2.8 17:40:52 10° SE 17:44:59 47° ENE 17:49:09 10° N
Cosmos 1300 3.6 17:49:25 10° SSE 17:52:38 26° E 17:55:51 10° NNE
Cosmos 1939 Rocket 3.7 17:50:18 10° SE 17:53:47 29° ENE 17:57:21 10° N
Shenzhou-11 Module 3.2 17:51:56 10° W 17:54:27 31° SSW 17:56:17 15° SE
Abrixas rocket 2.1 17:52:50 10° W 17:55:53 68° NNW 17:57:37 23° ENE
CZ-2D R/B 3.9 17:53:28 10° SE 17:56:57 34° ENE 18:00:29 10° N
CSL-04 Debris 4.1 17:57:48 10° SSE 18:03:15 77° ENE 18:08:44 10° NNW
Cosmos 1777 Rocket 4.4 17:59:16 10° NNW 18:04:26 67° WSW 18:09:34 10° S
NOSS 3-2 (C) 3.9 17:59:50 10° S 18:05:00 36° ESE 18:09:34 15° NE
Cosmos 2082 Rocket 2.2 17:59:29 10° NNW 18:05:10 62° ENE 18:10:47 10° SE
ADEOS Rocket 4.5 18:00:04 10° NE 18:05:19 20° E 18:07:28 18° ESE
BREEZE-M DEB (TANK) 3.9 18:01:27 10° WNW 18:05:57 84° NNE 18:18:49 12° ESE
Cosmos 1153 Rocket 4.4 18:04:12 10° N 18:10:19 67° E 18:16:25 10° SSE
ASTEX 1 3.9 18:05:38 10° N 18:10:33 62° W 18:15:27 10° SSW
USA 116 3.2 18:07:43 10° NNE 18:10:58 73° ESE 18:14:29 10° S
Unknown 3.0 18:14:38 10° WNW 18:18:03 89° SW 18:19:11 40° SE
Cosmos 1461 3.4 18:16:28 10° NW 18:20:31 60° WSW 18:24:42 10° SSE
Meteor 2-1 Rocket 4.4 18:18:19 10° SSE 18:23:30 44° E 18:28:46 10° NNE
Lacrosse 5 1.8 18:19:27 10° NW 18:24:32 87° SW 18:27:31 25° SE
CZ-4 R/B 2.4 18:20:38 10° S 18:24:42 50° W 18:28:49 10° NNW
SJ 16-02 2.6 18:22:47 10° N 18:25:45 24° NE 18:25:45 24° NE
FALCON 9 DEB 3.0 18:23:47 10° WNW 18:27:16 89° SW 18:27:59 54° SE
In-Cosmos 22 Rocket 4.3 18:23:51 10° N 18:29:08 50° ENE 18:32:45 20° SE
ATLAS 3B R/B 3.0 18:26:21 10° S 18:32:34 41° ESE 18:35:04 30° ENE
COSMO-SKYMED 1 3.9 18:28:47 10° N 18:32:53 41° WNW 18:36:58 10° SW
Cosmos 2084 Rocket 3.4 18:30:13 10° NW 18:34:40 81° NE 18:36:05 42° SE
ATLAS 5 CENTAUR R/B 4.4 18:32:35 10° NW 18:34:48 13° NNW 18:37:10 10° N
Unknown 3.8 18:36:05 10° NW 18:39:39 46° NNE 18:39:39 46° NNE
CENTAUR R/B 2.7 18:34:41 10° S 18:40:16 47° ESE 18:42:36 33° ENE
Falcon 9 debris 3.4 18:38:33 10° WNW 18:41:58 61° SW 18:42:11 59° SSW
H-2A R/B 3.1 18:42:58 30° NE 18:42:58 30° NE 18:46:53 10° N
Unknown 3.1 18:39:03 10° WNW 18:42:35 80° SW 18:42:37 79° SSW
Gbstr 26 Del rocket 4.4 18:36:47 10° WNW 18:42:54 63° SW 18:47:35 23° SE
Cosmos 1459 Rocket 3.9 18:38:46 10° N 18:45:01 72° E 18:51:19 10° SSE
Cosmos 2278 Rocket 3.3 18:39:54 10° SW 18:45:17 43° WNW 18:50:43 10° NNE
SJ-11-01 4.5 18:46:45 48° ENE 18:46:45 48° ENE 18:51:00 10° N
Cosmos 2061 Rocket 4.0 18:40:31 10° N 18:46:38 55° ENE 18:49:21 32° SE
Cosmos 1898 Rocket 3.5 18:43:36 10° NNW 18:48:52 64° ENE 18:50:02 50° ESE
Cosmos 2297 3.6 18:43:19 10° SSW 18:48:58 72° ESE 18:53:21 18° NNE
Okean 3 Rocket 3.6 18:56:11 10° N 19:00:14 67° NNE 19:00:14 67° NNE
Cosmos 1076 Rocket 4.5 18:56:46 10° NNW 19:00:58 48° W 19:05:08 10° SSW
ARGOS 3.9 19:05:13 36° NNE 19:05:13 36° NNE 19:08:57 10° N
Unknown 4.4 19:00:48 10° WNW 19:03:31 40° WSW 19:03:31 40° WSW
USA 238 DEB 4.2 19:00:05 10° SW 19:06:41 58° NW 19:12:35 15° NNE
USA 238 4.2 19:00:11 10° SW 19:06:47 58° NW 19:12:38 15° NNE
Cosmos 44 3.3 19:04:24 10° SW 19:09:21 78° NW 19:09:46 71° N
Cosmos 2058 3.8 19:07:27 10° NNW 19:11:32 49° W 19:13:00 33° SSW
Cosmos 2173 Rocket 4.1 19:07:07 10° NNW 19:13:20 71° W 19:19:26 10° S
Cosmos 1864 Rocket 4.3 19:12:38 10° N 19:18:48 73° E 19:18:58 72° E
Ariane Rocket 4.0 19:16:24 10° S 19:21:16 45° W 19:26:11 10° NNW
Cosmos 1802 Rocket 4.1 19:15:36 10° NNW 19:22:02 75° W 19:26:33 20° S
Cosmos 2151 4.4 19:18:24 10° N 19:20:43 31° NNW 19:20:43 31° NNW
MOS 1 4.4 19:20:54 39° S 19:23:03 70° WSW 19:28:44 10° NNW
Cosmos 2123 Rocket 3.8 19:18:39 10° S 19:24:56 78° E 19:31:13 10° N
Cosmos 468 Rocket 4.2 19:22:25 10° SSW 19:27:40 69° WNW 19:28:19 62° NNW
NOSS 3-2 (A) 4.3 19:24:14 10° WSW 19:29:54 47° NW 19:33:48 23° NNE
CZ-2C R/B 4.4 19:38:10 33° N 19:38:10 33° N 19:41:21 10° N
Cosmos 1725 Rocket 3.9 19:29:37 10° N 19:35:56 86° W 19:36:08 84° SSW
Cosmos 1937 Rocket 4.1 19:35:21 10° NNW 19:39:25 52° NW 19:39:25 52° NW
Cosmos 2082 Rocket 4.4 19:44:34 10° NW 19:48:44 21° W 19:52:51 10° SSW
ADEOS Rocket 3.4 19:44:03 10° NNE 19:51:46 86° WNW 19:58:49 10° SSW
NOSS 3-2 (C) 4.2 19:50:01 10° WSW 19:55:41 48° NW 19:57:04 41° N
SJ 16-02 3.8 20:01:09 10° NW 20:02:46 20° NW 20:02:46 20° NW
Lacrosse 5 4.2 20:03:44 10° W 20:06:45 16° WSW 20:06:45 16° WSW
ATLAS CENTAUR R/B 4.5 20:06:09 10° NNW 20:06:23 11° NNW 20:06:23 11° NNW
H-2A R/B 3.9 20:23:36 28° NW 20:23:36 28° NW 20:26:32 10° NNW
ATLAS 3B R/B 3.4 20:16:42 10° WSW 20:22:24 46° WNW 20:22:24 46° WNW
CENTAUR R/B 3.7 20:25:09 10° WSW 20:29:52 39° WNW 20:29:52 39° WNW
